Probability
0 0 0 0 0 0 0 0 0 0 0 1 1 1 0 1 2 3 7 8 7 7 9 11 12 16 24 32 35 34 32 30 26 19 17 18 17 15 15 17 19 18 16 16
0 0 0 0 0 0 0 0 0 0 1 1 1 0 0 1 1 3 6 8 9 11 14 15 14 16 23 30 33 32 33 32 28 22 18 17 18 18 17 19 21 20 18 15
0 0 0 0 0 0 0 0 0 0 1 1 0 1 1 1 0 2 5 9 11 15 19 20 19 20 24 28 31 31 32 34 31 26 20 18 19 19 20 22 24 23 20 17
0 0 0 0 0 0 0 0 0 0 1 1 0 1 1 1 0 1 5 9 12 16 22 23 23 25 26 27 31 34 37 38 36 30 25 22 20 20 20 23 26 27 26 24
0 0 0 0 0 0 0 0 0 0 0 0 0 0 0 0 0 1 5 9 12 16 21 25 27 27 26 26 30 38 44 44 39 34 31 26 22 20 21 25 29 32 33 32
0 0 0 0 0 0 0 0 0 0 0 0 0 0 0 1 1 2 7 11 14 16 21 25 28 29 27 25 29 38 46 47 42 37 34 30 25 23 24 28 32 34 35 34
0 0 0 0 0 0 0 0 0 1 0 0 0 1 1 2 3 4 9 14 17 18 20 23 26 28 28 28 30 37 45 47 43 39 37 35 31 29 30 33 34 33 32 32
0 0 0 0 0 0 0 0 0 0 0 0 1 2 3 4 5 7 11 16 18 18 20 23 26 27 28 29 32 37 42 45 43 41 39 38 36 35 36 38 35 32 32 33
0 0 0 0 0 0 0 0 1 1 0 0 1 4 6 7 9 11 14 17 18 18 22 26 29 29 29 30 32 35 39 42 43 41 39 39 39 37 37 39 38 34 35 36
0 0 0 0 0 0 0 1 2 2 1 0 1 4 8 10 12 15 17 17 17 18 23 27 29 28 29 31 33 35 37 40 41 40 39 39 38 36 36 39 39 39 40 39
0 0 0 0 0 0 0 1 2 3 2 1 2 5 10 11 12 14 15 15 15 17 21 24 23 25 28 31 33 34 37 39 38 40 41 40 38 37 38 40 41 41 42 41
0 0 0 0 0 0 0 0 1 2 2 2 3 6 10 11 12 12 12 13 15 18 22 23 23 25 28 31 32 33 35 36 36 40 42 40 39 38 39 41 41 41 40 39
0 0 0 0 0 0 0 0 0 1 1 2 3 6 9 12 14 13 13 15 18 22 25 26 27 29 31 33 35 36 35 34 35 39 41 41 39 37 38 40 41 40 38 37
0 0 0 0 0 0 0 0 0 0 0 1 2 6 10 14 15 15 16 18 21 25 27 29 33 36 37 39 42 42 40 38 38 39 41 43 41 38 38 39 41 41 38 36
0 0 0 0 0 0 0 0 0 0 0 1 3 8 12 16 17 17 18 21 23 24 26 31 38 43 44 47 48 47 46 46 45 44 45 46 45 41 40 40 43 43 39 34
0 0 0 0 0 0 0 0 0 0 0 2 6 11 16 18 18 19 21 23 25 27 30 34 39 43 46 49 51 50 50 51 50 48 48 49 47 45 43 42 43 44 40 34
0 0 1 1 1 1 1 1 2 2 3 5 9 14 18 18 18 19 23 27 30 33 37 39 39 41 44 49 51 51 51 52 51 49 49 49 48 47 46 44 44 45 42 39
0 0 0 0 1 2 3 5 5 6 7 10 13 15 17 17 17 21 27 33 34 37 42 44 41 41 45 49 50 49 49 49 48 46 47 48 48 49 49 47 45 45 44 43
0 0 0 0 0 2 4 6 6 8 12 14 15 15 15 15 19 23 29 34 35 36 41 42 40 41 45 48 48 46 44 44 44 44 45 46 47 48 49 48 46 44 43 42
0 0 0 0 1 2 3 3 4 8 14 17 17 17 16 17 22 27 28 32 36 38 39 39 39 40 44 48 48 45 42 43 44 45 45 45 46 46 46 46 45 44 40 36
1 1 1 2 3 3 3 3 5 12 19 21 22 21 20 22 27 28 27 31 39 43 41 41 42 42 45 49 49 46 44 45 46 46 45 45 44 42 42 43 44 42 37 33
1 1 4 6 8 9 8 8 12 20 26 25 24 24 25 27 29 28 29 34 41 44 44 43 44 45 45 45 45 45 45 46 46 45 44 42 40 38 37 39 38 35 31 29
2 3 7 10 12 14 15 15 18 22 25 25 23 24 26 28 29 31 35 39 40 40 41 41 41 42 42 40 37 38 42 45 45 44 42 40 36 35 35 34 31 27 24 23
4 7 10 13 15 16 16 16 16 17 20 20 21 23 24 27 31 36 40 42 39 37 36 36 35 37 37 35 32 34 39 43 44 43 40 36 32 31 31 29 25 22 20 19
5 8 12 15 15 14 12 10 10 15 18 19 21 22 22 26 31 35 39 41 38 35 33 32 32 33 31 29 30 33 37 41 40 38 34 30 26 25 26 24 20 17 15 13
5 7 11 14 12 11 9 7 8 14 18 20 21 20 20 25 30 33 37 38 37 34 32 31 31 31 27 24 27 33 37 40 37 32 29 24 21 22 23 20 16 12 10 8
Wind_Speed
12 11 10 8 8 8 8 5 4 5 3 3 4 4 6 9 10 11 11 12 11 10 11 11 10 12 12 10 9 7 6 5 3 2 2 3 2 2 2 2 2 1 1 1
11 13 12 10 9 7 8 8 6 5 3 3 2 4 6 7 9 10 10 11 11 11 11 11 11 11 12 11 9 8 7 6 4 3 2 2 2 2 2 2 2 2 1 0
13 11 10 10 8 8 9 8 6 5 6 5 4 4 5 4 6 9 10 11 12 13 13 11 10 11 12 11 10 8 7 6 5 4 3 2 2 1 2 2 2 1 1 1
13 12 10 10 9 9 8 7 5 5 7 5 5 4 5 6 7 9 10 10 11 12 13 12 11 11 11 11 10 8 8 7 6 4 3 3 3 2 2 2 3 2 1 1
12 11 11 11 10 8 7 6 6 7 7 7 5 4 4 5 5 8 10 11 11 12 13 13 13 11 11 11 11 9 7 6 6 4 4 2 2 2 2 2 2 2 2 1
13 11 11 10 9 9 7 7 8 8 7 8 7 5 4 4 7 7 9 11 11 12 13 13 13 11 10 10 10 10 8 6 5 5 4 3 2 1 2 2 2 2 2 2
13 13 12 10 10 9 8 6 4 6 6 7 6 5 4 7 7 6 8 10 11 13 13 12 12 12 10 10 10 10 9 7 6 5 4 4 3 3 2 2 1 1 1 1
11 12 12 10 10 8 9 9 7 6 5 4 3 3 4 7 6 5 6 8 9 11 11 11 11 11 10 10 10 10 9 7 6 6 4 4 3 3 2 2 1 1 0 1
9 10 11 11 9 10 9 9 9 8 8 7 3 1 4 8 9 7 7 8 8 9 10 11 11 10 10 9 9 9 9 8 7 6 5 4 3 2 2 2 2 1 0 1
11 10 9 8 9 11 11 10 6 6 6 6 5 5 3 6 7 6 7 6 6 8 9 9 10 10 9 9 9 9 8 7 7 6 5 4 3 2 2 1 1 1 1 1
11 10 8 8 11 9 9 10 7 5 6 6 5 2 3 4 6 7 7 5 6 6 7 7 9 9 8 8 9 9 8 7 6 5 4 3 4 3 2 2 1 1 2 1
9 9 9 11 9 8 10 11 10 7 7 7 6 2 3 3 5 7 8 7 6 6 6 7 8 8 8 8 8 8 8 8 6 5 5 4 3 3 3 2 2 2 1 2
5 7 9 10 8 9 11 12 12 10 8 7 6 1 2 2 4 5 7 7 6 6 6 7 7 6 6 6 7 7 7 8 7 6 5 5 4 4 3 3 3 2 2 1
6 10 11 12 9 8 11 12 11 11 9 7 5 4 5 3 3 5 7 6 5 7 6 6 7 5 5 5 5 5 5 6 6 6 6 5 4 3 3 2 3 3 2 2
9 12 12 14 13 12 11 12 13 12 11 9 6 5 6 5 3 4 7 7 6 6 6 6 6 6 6 5 5 5 4 4 4 5 5 5 4 3 3 3 3 3 3 3
8 10 12 14 16 14 13 13 14 12 11 10 8 3 5 5 3 4 6 6 7 6 5 6 7 6 6 5 4 4 4 4 4 4 4 4 4 3 3 3 3 3 2 2
8 9 11 12 12 13 14 11 10 9 8 8 7 3 6 6 3 4 5 6 6 6 6 6 6 6 6 6 5 4 4 3 4 3 3 3 3 3 3 3 3 3 3 2
10 8 8 11 11 14 9 6 5 4 4 2 2 3 5 7 5 5 5 5 5 5 6 6 4 4 5 5 5 4 4 3 3 3 3 2 2 2 2 2 2 2 2 2
11 8 9 9 11 12 8 5 5 5 3 1 2 3 4 7 6 6 6 6 5 4 4 5 4 4 4 4 4 3 3 3 3 3 2 2 1 1 2 2 2 1 2 3
11 7 8 10 11 11 5 3 5 4 3 2 3 3 2 4 4 4 5 5 4 4 5 5 4 4 5 4 3 3 3 3 2 2 2 1 2 2 2 1 2 1 2 3
9 9 10 11 11 7 3 3 4 5 1 2 4 4 2 2 3 4 3 4 4 4 5 4 4 4 4 3 3 2 2 1 1 1 1 1 1 2 2 2 2 2 3 3
9 8 9 9 10 5 5 2 2 2 3 3 4 5 5 5 5 4 4 5 5 4 5 4 4 4 4 3 3 2 1 1 1 0 0 0 1 2 2 1 2 2 3 3
7 6 4 4 2 2 5 5 4 3 3 3 4 4 4 4 4 5 4 5 4 4 4 4 4 4 3 3 2 2 1 1 0 0 0 1 1 1 2 2 3 3 3 4
4 3 4 3 2 2 3 4 5 5 3 3 3 4 2 3 4 5 4 3 4 4 3 3 3 3 3 2 2 2 1 1 0 1 1 2 2 2 2 2 2 3 3 3
5 3 4 2 0 0 2 3 4 4 4 4 4 3 3 4 4 4 3 3 4 3 3 3 2 2 2 2 2 2 1 1 1 2 2 3 3 2 1 1 2 2 1 2
4 4 3 2 1 1 1 3 3 4 4 5 4 4 4 3 4 3 3 3 3 3 3 2 2 2 2 2 1 1 0 0 1 2 2 2 2 2 1 1 1 1 0 0
Wind_Direction
234 238 242 242 238 248 271 276 261 256 217 224 158 172 209 187 172 163 165 163 166 162 154 151 153 147 143 142 144 147 141 142 149 146 162 158 164 154 134 136 128 128 134 139
240 241 249 248 251 246 251 259 254 269 240 251 196 183 218 191 171 164 166 164 162 158 151 153 157 153 151 150 150 150 150 152 159 157 170 166 158 152 139 126 125 135 154 146
239 248 251 255 251 252 247 249 251 258 272 252 243 225 227 186 179 167 170 167 167 165 158 158 158 155 152 155 160 160 157 155 163 164 168 150 141 143 139 140 132 153 146 136
247 244 252 252 251 254 263 259 259 247 262 269 254 250 190 185 182 179 172 169 167 162 158 158 159 157 155 157 157 154 155 157 159 172 174 175 162 161 158 148 143 148 149 160
243 241 246 253 259 258 273 296 287 269 265 272 263 259 222 177 192 192 178 173 166 161 158 156 157 157 158 157 156 153 150 156 158 169 165 175 166 167 145 141 137 144 143 160
255 245 244 250 261 259 264 274 272 268 265 262 246 235 224 187 192 192 177 165 161 158 156 155 155 154 157 155 153 150 147 152 160 169 166 164 174 173 148 151 156 173 162 164
243 245 243 242 246 245 247 257 263 252 238 252 244 230 184 177 177 175 163 161 156 155 154 151 152 156 159 159 155 151 152 158 163 169 172 167 187 196 185 182 188 199 163 145
232 237 234 234 237 248 247 246 251 266 275 270 248 234 144 137 127 143 140 140 147 152 149 150 154 157 161 161 156 152 154 160 165 169 168 166 184 198 191 192 201 206 176 125
243 242 224 226 234 241 253 256 270 283 286 282 277 194 143 137 143 146 135 140 153 152 149 151 154 157 159 159 154 154 156 164 170 173 168 176 182 197 188 185 197 195 116 142
253 264 248 220 234 231 246 260 268 272 279 282 282 258 214 152 147 133 123 140 146 148 147 151 155 158 161 160 154 153 155 163 170 170 175 179 181 183 189 189 148 122 102 71
251 265 259 237 223 233 237 249 256 267 269 277 264 268 89 134 144 141 134 139 140 136 146 147 150 152 153 154 153 153 154 160 164 166 167 171 170 173 178 178 164 154 144 136
237 258 262 253 240 225 241 243 243 247 253 267 271 253 86 142 148 140 138 135 136 136 138 140 142 142 152 158 156 156 160 163 165 160 156 155 151 169 177 175 170 163 159 166
257 255 256 254 235 219 237 242 247 249 252 253 264 221 131 142 121 126 121 121 124 123 126 132 130 137 145 144 144 153 163 164 165 160 161 162 169 172 179 178 172 176 179 189
259 251 253 255 253 240 238 248 252 252 252 251 244 183 164 191 160 135 119 124 131 131 127 129 125 130 127 130 136 148 161 160 163 161 166 167 173 173 172 174 171 177 184 196
249 254 259 267 269 264 259 250 248 248 259 267 260 191 177 175 163 125 124 132 131 131 136 131 127 128 121 126 133 141 150 145 151 155 159 161 165 169 170 172 175 180 194 199
248 268 271 268 266 262 262 252 247 242 247 253 258 221 133 131 130 129 127 134 136 133 141 136 132 128 127 130 133 128 131 139 144 149 149 151 161 168 173 181 183 187 194 205
248 254 268 271 271 269 261 256 246 240 248 253 255 176 127 121 122 123 135 134 129 135 131 132 135 145 145 145 133 131 126 127 130 133 137 149 160 175 186 200 193 198 201 211
245 254 259 267 273 260 258 272 270 253 253 269 63 96 119 115 104 94 95 95 103 118 120 126 132 133 132 138 144 147 142 134 132 132 137 151 175 181 185 191 203 215 216 219
245 234 249 259 261 259 258 260 266 251 241 277 107 101 127 128 118 100 93 92 97 105 104 115 123 119 112 116 130 136 143 138 139 144 155 166 169 194 198 194 205 215 227 236
241 234 241 250 260 262 262 273 279 244 217 27 95 126 145 137 126 109 100 96 91 100 108 112 113 111 109 111 123 135 144 142 150 149 161 162 181 217 227 222 232 239 251 255
242 232 237 250 253 258 322 328 297 259 159 41 54 89 106 86 100 112 115 102 93 92 92 99 104 103 98 106 116 124 121 125 117 107 109 148 200 242 234 234 246 250 255 259
243 240 232 245 249 254 344 2 13 43 72 63 59 65 73 86 96 110 127 117 110 104 95 92 88 87 84 85 100 112 113 84 84 110 183 216 234 265 270 244 249 255 258 258
255 266 260 243 226 67 26 53 67 62 62 58 66 73 86 95 109 107 96 97 102 97 95 91 93 90 88 94 111 126 102 89 67 38 288 258 253 253 262 256 250 246 246 249
251 285 278 255 134 66 47 44 41 38 36 40 71 85 100 115 118 114 108 106 106 95 87 90 100 100 97 96 93 87 94 107 129 246 258 258 243 236 244 246 252 253 258 260
288 271 261 255 312 259 20 33 29 35 26 33 58 67 74 106 113 112 110 104 102 101 88 79 79 90 87 80 89 87 76 97 258 253 256 260 262 253 243 252 289 274 315 290
280 281 261 260 279 304 351 7 22 39 28 31 41 38 33 65 90 90 85 87 91 88 80 76 76 78 91 99 90 73 79 54 290 280 274 275 271 263 250 249 277 22 202 153